Other Public Products
Issued by NWS Charleston, SC

Current Version | Previous Version | Graphics & Text | Print | Product List | Glossary On
Versions: 1 2 3 4 5 6 7 8 9 10 11 12 13 14 15 16 17 18 19 20 21 22 23 24 25 26 27 28 29 30 31 32 33 34 35 36 37 38 39 40 41 42 43 44 45 46 47 48 49 50
140 FPUS82 KCHS 241412 OPUCHS TEST...KCHS/KSAV Gateway Observations...TEST National Weather Service Charleston SC 900 AM EST SAT FEB 24 2018 NOTE: "fair" indicates few or no clouds below 12,000 feet with no significant weather and/or obstructions to visibility. SCZ050-WAZ558-NCZ071-TXZ119-213-PAZ071-DCZ001-FLZ074-172-MI076- NYZ176-178-MAZ016-IL014-TNZ027-NJZ106-GAZ044-MD014-241500- ...Gateway Observations for Charleston International... CITY SKY/WX TMP DP RH WIND PRES REMARKS Chas Airport FAIR 68 66 93 SW8 30.26S Seattle CLOUDY 36 34 92 SW9 29.92R WCI 29 Charlotte FOG 62 62 100 SW7 30.24R VSB 3/4 Dallas DFW LGT RAIN 58 56 93 SE15G24 29.79F Dallas Love TSTM 55 55 100 SE22 29.80F FOG Philladelphia CLOUDY 46 44 93 CALM 30.20S FOG Wash National FOG 51 51 100 NE6 30.18R VSB 1/8 Baltimore FOG 45 45 100 NE7 30.18S VSB 1/16 Miami FAIR 77 68 73 E16 30.23R Detroit CLOUDY 39 31 72 NE9 30.22F WCI 33 Newark PTSUNNY 48 45 89 SW6 30.17S Laguardia PTSUNNY 48 42 80 NW7 30.16F J F K PTSUNNY 47 44 90 SW8 30.18S Boston Logan FAIR 48 39 71 W16 30.09S Ft. Lauderdale FAIR 76 69 79 E17 30.22R Chicago O`Hare CLOUDY 34 28 79 E10 30.16F WCI 26 Chicago Midway CLOUDY 35 30 82 E14 30.16F WCI 26 Houston Bush CLOUDY 73 70 90 S9 29.97S Houston Hobby PTSUNNY 72 71 97 S9 29.98R Nashville PTSUNNY 66 63 90 SW10G18 30.07R Atlanta PTSUNNY 64 61 90 S8 30.21S $$ GAZ044-118-TXZ119-213-NCZ071-DCZ001-MDZ014-506-PAZ021-071-NJZ106- NYZ176-178-MAZ106-OHZ011-021-055-MIZ076-KYZ091-ILZ014-INZ047- MNZ060-ONZ431-241500- ...Gateway Observations for Savannah International... CITY SKY/WX TMP DP RH WIND PRES REMARKS Savannah Arpt FAIR 67 66 97 SW5 30.27S Atlanta PTSUNNY 64 61 90 S8 30.21S Charlotte FOG 62 62 100 SW7 30.24R VSB 3/4 Dallas DFW LGT RAIN 58 56 93 SE15G24 29.79F Houston Bush CLOUDY 73 70 90 S9 29.97S Wash National FOG 51 51 100 NE6 30.18R VSB 1/8 Wash Dulles FOG 49 49 100 CALM 30.17R VSB 1 Baltimore FOG 45 45 100 NE7 30.18S VSB 1/16 Philadelphia CLOUDY 46 44 93 CALM 30.20S FOG Newark PTSUNNY 48 45 89 SW6 30.17S Laguardia PTSUNNY 48 42 80 NW7 30.16F J F K PTSUNNY 47 44 90 SW8 30.18S Boston FAIR 48 39 71 W16 30.09S Pittsburg CLOUDY 46 44 93 NE7 30.17S Akron RAIN 43 39 86 E7 30.18F FOG Cleveland LGT RAIN 38 35 89 NE10 30.24S WCI 31 Cincinnati LGT RAIN 48 47 96 NE10 30.10R FOG Columbus HVY RAIN 46 46 100 CALM 30.17R Detroit CLOUDY 39 31 72 NE9 30.22F WCI 33 Chicago O`Hare CLOUDY 34 28 79 E10 30.16F WCI 26 Minneapolis FOG 9 8 96 E8 30.16F VSB 1/4 WCI -3 Indianapolis RAIN 42 41 96 E6 30.13R FOG Toronto Canada PTSUNNY 34 27 75 N12 30.24R WCI 25 $$

USA.gov is the U.S. government's official web portal to all federal, state and local government web resources and services.